Date,TemperatureHighF,TemperatureAvgF,TemperatureLowF,DewpointHighF,DewpointAvgF,DewpointLowF,HumidityHigh,HumidityAvg,HumidityLow,PressureMaxIn,PressureMinIn,WindSpeedMaxMPH,WindSpeedAvgMPH,GustSpeedMaxMPH,PrecipitationSumIn
2013-3-1,40.7,37.6,32.9,32.7,28.9,23.9,81,71,57,29.89,29.71,18,5,18,0.00
2013-3-2,33.7,31.4,29.4,24.8,23.0,21.3,76,71,64,29.89,29.82,17,6,18,0.00
2013-3-3,37.1,31.7,28.2,23.1,20.8,18.4,78,64,52,29.92,29.80,21,7,22,0.00
2013-3-4,40.5,32.6,26.6,22.0,18.9,15.1,67,57,44,30.03,29.92,23,6,27,0.00
2013-3-5,49.9,37.0,25.0,27.6,21.8,16.2,79,56,28,30.07,29.78,14,1,17,0.00
2013-3-6,40.3,36.0,32.5,34.4,32.2,27.6,97,87,66,30.01,29.66,23,4,26,0.79
2013-3-7,45.2,40.3,36.1,31.5,29.8,27.0,77,66,53,30.16,30.01,23,6,23,0.00
2013-3-8,46.9,40.0,35.2,31.4,28.7,24.9,76,64,52,30.29,30.14,26,8,31,0.00
2013-3-9,59.5,43.2,31.1,31.8,27.3,23.9,78,56,30,30.36,30.23,10,1,10,0.00
2013-3-10,63.7,47.1,28.8,35.4,29.6,24.5,88,55,31,30.29,30.15,19,3,19,0.00
2013-3-11,59.0,51.2,42.1,49.9,41.2,28.3,87,70,43,30.17,29.82,21,4,22,0.00
2013-3-12,57.5,50.0,41.0,52.9,43.1,29.8,96,78,62,29.95,29.71,22,7,24,0.89
2013-3-13,48.2,38.7,30.2,32.7,26.4,20.6,85,62,39,30.05,29.88,26,4,28,0.00
2013-3-14,41.4,35.3,30.3,22.0,19.5,17.3,65,53,40,30.12,30.02,27,8,29,0.00
2013-3-15,56.5,43.4,29.1,38.0,28.0,20.1,73,55,40,30.08,29.75,16,2,17,0.00
2013-3-16,48.7,41.8,35.4,39.6,35.4,32.9,92,79,61,29.91,29.62,12,2,16,0.00
2013-3-17,39.7,36.3,34.3,33.6,28.8,23.2,92,75,58,30.24,29.90,14,2,15,0.00
2013-3-18,35.9,33.3,30.2,31.7,28.1,22.8,96,82,61,30.29,29.88,11,1,14,0.00
2013-3-19,56.2,41.0,32.1,42.1,29.4,16.6,98,70,27,29.91,29.70,27,3,27,0.32
2013-3-20,50.0,40.7,31.5,29.1,20.4,15.7,76,45,30,29.96,29.73,28,4,28,0.00
2013-3-21,35.7,30.3,25.4,28.6,16.0,10.4,75,55,43,29.89,29.76,22,5,22,0.00
2013-3-22,42.4,33.7,24.0,23.0,19.3,12.7,67,56,45,30.00,29.86,21,4,21,0.00
2013-3-23,51.1,38.1,24.1,28.4,23.9,18.6,85,58,38,30.02,29.90,16,3,22,0.00
2013-3-24,41.5,34.1,26.8,31.5,25.6,21.0,94,72,54,29.99,29.62,7,0,7,0.00
2013-3-25,39.2,34.4,32.1,36.1,32.6,30.9,96,93,84,29.69,29.51,5,0,5,0.50
2013-3-26,47.2,39.0,30.8,38.2,31.3,27.1,98,76,46,29.99,29.68,18,3,22,0.14
2013-3-27,46.4,40.4,34.7,32.3,29.5,26.8,80,66,48,30.11,29.99,21,4,22,0.00
2013-3-28,45.4,40.7,33.9,34.3,31.5,27.3,80,70,60,30.22,30.06,22,4,22,0.00
2013-3-29,54.6,45.2,38.0,36.8,32.0,28.6,79,61,39,30.24,30.11,15,2,16,0.00
2013-3-30,59.0,44.2,29.2,34.8,28.3,22.9,93,58,29,30.22,30.07,12,1,12,0.00
2013-3-31,47.7,45.4,41.3,46.6,38.3,23.3,97,78,48,30.07,29.72,11,1,13,0.20